DELTA 1 DEB, 19000

Orbit data source: Space-Track

DELTA 1 DEB, 19000 is space debris in SSO originally from a launch on Thu, 29 Jul 1976 UTC launched from the Air Force Western Test Range (AFWTR). Debris objects in space refer to the collection of defunct objects orbiting the Earth. Examples of debris include non-operational satellites, rocket bodies, and fragments generated from explosions, collisions, or faulty payload assembly.

Loading next visibility...
Identifier
19000, 1976-077FH
Orbit
SSO
Country
Flag of USUS
Related business
Manufacturer
Unknown
Mission
Spacecraft
Bus & Motor
Unknown
Mass
Unknown
Launch date (UTC)
1976-07-29 (49 years ago)
Launch vehicle
Unknown
Launch site
Air Force Western Test Range (AFWTR)
Object type
Payload
Rocket body
Debris
Shape & HBR
Unknown shape, 0.1 m
Radar Cross Section
Small (<0.1 m²)

Expand to show TLE details & history
Last TLE update: 1 day ago

TLE from 1 day ago
0 DELTA 1 DEB
1 19000U 76077FH  25345.84700531 -.00000028  00000-0  16418-3 0  9998
2 19000 102.5864 328.8113 0078451 290.0113 185.9722 12.26757760703956
Epoch: 2025-12-11T20:19Z
TLE epoch observation values (Epoch: 2025-12-11T20:19:41.258Z)
Latitude
61.49158°
Longitude
147.24086°
Altitude
1,635.516 km
Speed
7.032 km/s
True Right ascension
11h 31m 50s
True Declination
61° 21' 47"
Sunlit
Object was in daylight at epoch
Visualization orbit readout
Latitude
Unknown
Longitude
Unknown
Altitude
Unknown
Speed
Unknown
Apparent Right ascension
Unknown
Apparent Declination
Unknown
Sunlit
N/A
Visualization observer readout
Local Sidereal Time
22:59:54
Azimuth
Unknown
Elevation
Unknown
Doppler factor
Unknown
Orbital elements
Apogee altitude
1,623.152 km
Perigee altitude
1,498.588 km
Semi-major axis
7,939.007 km
Eccentricity
0.00785
Inclination
102.5864°
RAAN
328.8113°
Arg. of periapsis
290.0113°
True anomaly
185.87957°
Mean anomaly
185.9722°
Eccentric anomaly
185.92579°
Mean motion
3.06827 °/min
Orbital period
117.33 mins
BSTAR
0.00016418
Loading maneuver chart data...
Computing Atmospheric mass density...
Loading historical data...
Loading historical data...
Loading historical data...
Loading historical data...
Loading historical data...
Loading historical data...
Loading historical data...

Documentation

Showing up to 5 results
|